When you browse on this site, cookies collect data to enhance your experience and personalize the content and advertising you see.
Visit our Privacy Policy to learn more. By continuing to use the site, you agree to this use of cookies and data.
  • In Hungary
  • List of Countries
  • For 7 days
  • Water Temperature
  • Satellite Maps
  • Weather Map
  • News
  • Weather Widgets
  • user-avatar
    Login

    Hourly Weather Slyvyne

    Today, 11 December, Tuesday

    Time Temperature Precipitation Wind Pressure Humidity
    00:00 -1°C° 0 mm 3 mps 753 mmHg 91%
    01:00 -1°C° 0 mm 3 mps 753 mmHg 91%
    02:00 -2°C° 0 mm 3 mps 753 mmHg 92%
    03:00 -2°C° 0 mm 3 mps 753 mmHg 92%
    04:00 -2°C° 0 mm 3 mps 753 mmHg 92%
    05:00 -3°C° 0 mm 4 mps 753 mmHg 92%
    06:00 -3°C° 0 mm 4 mps 753 mmHg 91%
    07:00 -3°C° 0 mm 4 mps 753 mmHg 91%
    08:00 -4°C° 0 mm 5 mps 753 mmHg 90%
    09:00 -2°C° 0 mm 5 mps 752 mmHg 88%
    10:00 -2°C° 0 mm 6 mps 752 mmHg 85%
    11:00 -1°C° 0 mm 7 mps 752 mmHg 83%
    12:00 -1°C° 0 mm 7 mps 752 mmHg 83%
    13:00 -1°C° 0 mm 7 mps 752 mmHg 82%
    14:00 0°C° 0 mm 7 mps 752 mmHg 82%
    15:00 -1°C° 0.1 mm 8 mps 752 mmHg 84%
    16:00 -1°C° 0.1 mm 8 mps 752 mmHg 85%
    17:00 -1°C° 0.1 mm 8 mps 752 mmHg 87%
    18:00 -2°C° 0.4 mm 8 mps 752 mmHg 87%
    19:00 -2°C° 0.4 mm 8 mps 752 mmHg 88%
    20:00 -3°C° 0.4 mm 9 mps 752 mmHg 88%
    21:00 -3°C° 0.6 mm 9 mps 752 mmHg 88%
    22:00 -3°C° 0.6 mm 9 mps 752 mmHg 88%
    23:00 -3°C° 0.6 mm 9 mps 752 mmHg 88%

    Tomorrow, 12 December, Wednesday

    Time Temperature Precipitation Wind Pressure Humidity
    00:00 -3°C° 0.6 mm 9 mps 753 mmHg 88%
    01:00 -3°C° 0.6 mm 9 mps 753 mmHg 88%
    02:00 -2°C° 0.6 mm 8 mps 753 mmHg 87%
    03:00 -2°C° 0.4 mm 8 mps 753 mmHg 87%
    04:00 -2°C° 0.4 mm 8 mps 753 mmHg 87%
    05:00 -2°C° 0.4 mm 8 mps 753 mmHg 87%
    06:00 -2°C° 0.2 mm 8 mps 753 mmHg 87%
    07:00 -2°C° 0.2 mm 8 mps 753 mmHg 87%
    08:00 -2°C° 0.2 mm 8 mps 753 mmHg 87%
    09:00 -2°C° 0.1 mm 8 mps 754 mmHg 87%
    10:00 -2°C° 0.1 mm 8 mps 754 mmHg 87%
    11:00 -1°C° 0.1 mm 8 mps 754 mmHg 87%
    12:00 -1°C° 0 mm 7 mps 754 mmHg 87%
    13:00 -1°C° 0 mm 7 mps 754 mmHg 86%
    14:00 -1°C° 0 mm 7 mps 754 mmHg 85%
    15:00 -1°C° 0 mm 7 mps 755 mmHg 85%
    16:00 -2°C° 0 mm 7 mps 755 mmHg 85%
    17:00 -2°C° 0 mm 7 mps 755 mmHg 85%
    18:00 -2°C° 0 mm 6 mps 755 mmHg 85%
    19:00 -2°C° 0 mm 6 mps 755 mmHg 86%
    20:00 -3°C° 0 mm 6 mps 756 mmHg 86%
    21:00 -3°C° 0 mm 6 mps 756 mmHg 87%
    22:00 -3°C° 0 mm 6 mps 756 mmHg 87%
    23:00 -4°C° 0 mm 6 mps 756 mmHg 87%

    Day after tomorrow, 13 December, Thursday

    Time Temperature Precipitation Wind Pressure Humidity
    00:00 -4°C° 0 mm 6 mps 756 mmHg 87%
    01:00 -3°C° 0 mm 6 mps 756 mmHg 87%
    02:00 -3°C° 0 mm 6 mps 756 mmHg 87%
    03:00 -3°C° 0.1 mm 6 mps 756 mmHg 88%
    04:00 -3°C° 0.1 mm 6 mps 756 mmHg 88%
    05:00 -3°C° 0.1 mm 6 mps 756 mmHg 88%
    06:00 -3°C° 0.2 mm 6 mps 756 mmHg 89%
    07:00 -3°C° 0.2 mm 7 mps 757 mmHg 89%
    08:00 -3°C° 0.2 mm 7 mps 757 mmHg 89%
    09:00 -2°C° 0.3 mm 7 mps 757 mmHg 88%
    10:00 -2°C° 0.3 mm 7 mps 757 mmHg 88%
    11:00 -2°C° 0.3 mm 7 mps 757 mmHg 87%
    12:00 -2°C° 0.2 mm 7 mps 757 mmHg 86%
    13:00 -1°C° 0.2 mm 7 mps 757 mmHg 85%
    14:00 -1°C° 0.2 mm 6 mps 757 mmHg 84%
    15:00 -1°C° 0.1 mm 6 mps 757 mmHg 84%
    16:00 0°C° 0.1 mm 5 mps 758 mmHg 84%
    17:00 -1°C° 0.1 mm 5 mps 758 mmHg 84%
    18:00 -1°C° 0 mm 5 mps 758 mmHg 84%
    19:00 -1°C° 0 mm 5 mps 758 mmHg 85%
    20:00 -1°C° 0 mm 5 mps 759 mmHg 85%
    21:00 -1°C° 0.1 mm 5 mps 759 mmHg 86%
    22:00 -1°C° 0.1 mm 4 mps 759 mmHg 87%
    23:00 -1°C° 0.1 mm 4 mps 759 mmHg 88%

    14 December, Friday

    Time Temperature Precipitation Wind Pressure Humidity
    00:00 -2°C° 0 mm 4 mps 759 mmHg 89%
    01:00 -2°C° 0 mm 4 mps 760 mmHg 89%
    02:00 -2°C° 0 mm 4 mps 760 mmHg 90%
    03:00 -2°C° 0.1 mm 4 mps 760 mmHg 91%
    04:00 -2°C° 0.1 mm 4 mps 760 mmHg 92%
    05:00 -1°C° 0.1 mm 3 mps 760 mmHg 92%
    06:00 -1°C° 0.1 mm 3 mps 761 mmHg 93%
    07:00 -1°C° 0.1 mm 3 mps 761 mmHg 93%
    08:00 -1°C° 0.1 mm 3 mps 761 mmHg 94%
    09:00 -1°C° 0 mm 3 mps 762 mmHg 93%
    10:00 -1°C° 0 mm 3 mps 762 mmHg 93%
    11:00 -1°C° 0 mm 4 mps 763 mmHg 93%
    12:00 0°C° 0 mm 3 mps 763 mmHg 92%
    13:00 0°C° 0 mm 3 mps 763 mmHg 91%
    14:00 0°C° 0 mm 3 mps 763 mmHg 91%
    15:00 +1°C° 0 mm 2 mps 763 mmHg 91%
    16:00 +1°C° 0 mm 2 mps 764 mmHg 91%
    17:00 +1°C° 0 mm 2 mps 764 mmHg 91%
    18:00 +1°C° 0 mm 2 mps 765 mmHg 91%
    19:00 +2°C° 0 mm 1 mps 765 mmHg 90%
    20:00 +2°C° 0 mm 1 mps 765 mmHg 90%
    21:00 +1°C° 0 mm 1 mps 766 mmHg 89%
    22:00 -1°C° 0 mm 2 mps 766 mmHg 88%
    23:00 -1°C° 0 mm 2 mps 766 mmHg 87%

    15 December, Saturday

    Time Temperature Precipitation Wind Pressure Humidity
    00:00 -1°C° 0 mm 2 mps 766 mmHg 87%
    01:00 +1°C° 0 mm 1 mps 766 mmHg 87%
    02:00 0°C° 0 mm 1 mps 766 mmHg 86%
    03:00 0°C° 0 mm 1 mps 767 mmHg 86%
    04:00 -1°C° 0 mm 1 mps 767 mmHg 86%
    05:00 -1°C° 0 mm 1 mps 767 mmHg 86%
    06:00 -1°C° 0 mm 1 mps 767 mmHg 87%
    07:00 -1°C° 0 mm 1 mps 767 mmHg 87%
    08:00 -2°C° 0 mm 1 mps 768 mmHg 87%
    09:00 -1°C° 0 mm 1 mps 768 mmHg 85%
    10:00 0°C° 0 mm 1 mps 768 mmHg 83%
    11:00 +1°C° 0 mm 1 mps 768 mmHg 81%
    12:00 +1°C° 0 mm 1 mps 768 mmHg 81%
    13:00 +2°C° 0 mm 1 mps 768 mmHg 82%
    14:00 +2°C° 0 mm 1 mps 768 mmHg 82%
    15:00 -1°C° 0 mm 2 mps 768 mmHg 84%
    16:00 -2°C° 0 mm 2 mps 769 mmHg 86%
    17:00 -2°C° 0 mm 2 mps 769 mmHg 87%
    18:00 -2°C° 0 mm 3 mps 769 mmHg 87%
    19:00 -2°C° 0 mm 3 mps 769 mmHg 88%
    20:00 -4°C° 0 mm 3 mps 769 mmHg 88%
    21:00 -4°C° 0 mm 4 mps 769 mmHg 88%
    22:00 -4°C° 0 mm 4 mps 769 mmHg 88%
    23:00 -4°C° 0 mm 4 mps 769 mmHg 88%

    16 December, Sunday

    Time Temperature Precipitation Wind Pressure Humidity
    00:00 -4°C° 0 mm 4 mps 769 mmHg 88%
    01:00 -4°C° 0 mm 4 mps 769 mmHg 88%
    02:00 -4°C° 0 mm 4 mps 769 mmHg 88%
    03:00 -5°C° 0 mm 5 mps 768 mmHg 88%
    04:00 -5°C° 0 mm 5 mps 768 mmHg 88%
    05:00 -5°C° 0 mm 5 mps 768 mmHg 89%
    06:00 -5°C° 0 mm 5 mps 768 mmHg 89%
    07:00 -4°C° 0 mm 6 mps 768 mmHg 89%
    08:00 -4°C° 0 mm 6 mps 768 mmHg 89%
    09:00 -3°C° 0 mm 6 mps 768 mmHg 89%
    10:00 -3°C° 0 mm 6 mps 768 mmHg 90%
    11:00 -2°C° 0 mm 6 mps 768 mmHg 90%
    12:00 -2°C° 0 mm 6 mps 768 mmHg 91%
    13:00 0°C° 0 mm 5 mps 767 mmHg 92%
    14:00 0°C° 0 mm 5 mps 767 mmHg 93%
    15:00 0°C° 0 mm 5 mps 767 mmHg 93%
    16:00 -1°C° 0 mm 5 mps 767 mmHg 93%
    17:00 -1°C° 0 mm 5 mps 767 mmHg 92%
    18:00 -1°C° 0 mm 5 mps 767 mmHg 91%
    19:00 -1°C° 0 mm 5 mps 767 mmHg 90%
    20:00 -1°C° 0 mm 5 mps 767 mmHg 89%
    21:00 -2°C° 0 mm 5 mps 767 mmHg 88%
    22:00 -2°C° 0 mm 5 mps 767 mmHg 88%
    23:00 -2°C° 0 mm 5 mps 767 mmHg 87%
    Show more